FLOCK 1C 11

导读 | 星芒AI

FLOCK 1C 11 是由美国公司 Planet Labs 运营的地球观测卫星,属于 Flock 1C 系列。该卫星主要用于高分辨率光学成像,支持全球范围内的日常影像采集。它运行在低地球轨道,具备快速重访能力和高图像质量,广泛应用于环境监测、农业管理、灾害评估等领域。FLOCK 1C 11 于 2016 年发射,是 Planet 全球卫星星座的重要组成部分,助力实现对地球表面的高频次、广覆盖观测。

基本信息
目录编号:
40033
目录名称:
FLOCK 1C 11
国际标识:
2014-033Z
轨道中心:
EARTH
卫星名称:
FLOCK 1C 11
卫星全名:
--
卫星状态:
已陨落 最后检测时间 2025-03-08
发射日期:
2014-06-19 UTC
国别 :
美国 (US)
星等 :
--
轨道信息
数据来源 国际轨道数据
星历时间: 2025-03-02T20:20:54+0800
轨道信息已过期241天
半长轴: 6573.042km
偏心率: 0.0008607
轨道倾角: 98.057°
近地点辐角 237.424°
升交点赤经 89.355°
平近点角 122.622°
近地点: 189.249km
远地点: 200.565km
周期: 88.391分钟
每日圈数: 16.291206
详细信息
使用方式:
暂无